Time,TemperatureF,DewpointF,PressureIn,WindDirection,WindDirectionDegrees,WindSpeedMPH,WindSpeedGustMPH,Humidity,HourlyPrecipIn,Conditions,Clouds,dailyrainin,SoftwareType,DateUTC
2013-02-22 00:01:00,65.1,62.8,30.05,SE,130,0.0,0.0,92,0.00,,,0.00,meteohub,2013-02-22 05:01:00,
2013-02-22 00:06:00,65.1,62.8,30.05,SE,130,0.0,0.0,92,0.00,,,0.00,meteohub,2013-02-22 05:06:00,
2013-02-22 00:11:00,65.1,62.8,30.05,SE,130,0.0,0.0,92,0.00,,,0.00,meteohub,2013-02-22 05:11:00,
2013-02-22 00:16:00,64.9,62.8,30.04,SE,130,0.0,0.0,93,0.00,,,0.00,meteohub,2013-02-22 05:16:00,
2013-02-22 00:21:00,65.1,63.0,30.04,SE,130,0.0,0.0,93,0.00,,,0.00,meteohub,2013-02-22 05:21:00,
2013-02-22 00:26:00,65.1,63.0,30.03,SE,130,0.0,0.0,93,0.00,,,0.00,meteohub,2013-02-22 05:26:00,
2013-02-22 00:31:00,65.1,63.0,30.03,SE,130,0.0,1.0,93,0.00,,,0.00,meteohub,2013-02-22 05:31:00,
2013-02-22 00:36:00,65.1,63.0,30.03,SE,130,0.0,1.0,93,0.00,,,0.00,meteohub,2013-02-22 05:36:00,
2013-02-22 00:41:00,64.9,62.8,30.03,SE,130,0.0,1.0,93,0.00,,,0.00,meteohub,2013-02-22 05:41:00,
2013-02-22 00:46:00,65.1,63.0,30.03,SE,130,0.0,0.0,93,0.00,,,0.00,meteohub,2013-02-22 05:46:00,
2013-02-22 00:51:00,65.1,63.0,30.03,SE,130,0.0,0.0,93,0.00,,,0.00,meteohub,2013-02-22 05:51:00,
2013-02-22 00:56:00,65.1,63.0,30.03,SE,130,0.0,0.0,93,0.00,,,0.00,meteohub,2013-02-22 05:56:00,
2013-02-22 01:01:00,65.1,63.0,30.03,SE,130,0.0,1.0,93,0.00,,,0.00,meteohub,2013-02-22 06:01:00,
2013-02-22 01:06:00,64.9,62.8,30.03,SE,130,0.0,1.0,93,0.00,,,0.00,meteohub,2013-02-22 06:06:00,
2013-02-22 01:11:00,64.9,62.8,30.02,SE,130,0.0,1.0,93,0.00,,,0.00,meteohub,2013-02-22 06:11:00,
2013-02-22 01:16:00,64.9,62.8,30.03,SE,130,0.0,1.0,93,0.00,,,0.00,meteohub,2013-02-22 06:16:00,
2013-02-22 01:21:00,64.9,62.8,30.03,SE,130,0.0,0.0,93,0.00,,,0.00,meteohub,2013-02-22 06:21:00,
2013-02-22 01:26:00,64.9,62.8,30.04,SE,130,0.0,0.0,93,0.00,,,0.00,meteohub,2013-02-22 06:26:00,
2013-02-22 01:31:00,64.8,62.6,30.04,SE,130,0.0,0.0,93,0.00,,,0.00,meteohub,2013-02-22 06:31:00,
2013-02-22 01:36:00,64.8,62.6,30.03,SE,130,0.0,0.0,93,0.00,,,0.00,meteohub,2013-02-22 06:36:00,
2013-02-22 01:41:00,64.6,62.4,30.02,SE,130,0.0,0.0,93,0.00,,,0.00,meteohub,2013-02-22 06:41:00,
2013-02-22 01:46:00,64.6,62.4,30.02,SE,130,0.0,0.0,93,0.00,,,0.00,meteohub,2013-02-22 06:46:00,
2013-02-22 01:51:00,64.6,62.8,30.02,SE,130,0.0,0.0,94,0.00,,,0.00,meteohub,2013-02-22 06:51:00,
2013-02-22 01:57:00,64.6,62.8,30.02,SE,130,0.0,1.0,94,0.00,,,0.00,meteohub,2013-02-22 06:57:00,
2013-02-22 02:06:00,64.6,62.8,30.02,SE,130,0.0,1.0,94,0.00,,,0.00,meteohub,2013-02-22 07:06:00,
2013-02-22 02:11:00,64.8,63.0,30.02,SE,130,0.0,0.0,94,0.00,,,0.00,meteohub,2013-02-22 07:11:00,
2013-02-22 02:16:00,64.8,63.0,30.02,SE,130,0.0,1.0,94,0.00,,,0.00,meteohub,2013-02-22 07:16:00,
2013-02-22 02:21:00,64.8,63.0,30.02,SE,130,0.0,1.0,94,0.00,,,0.00,meteohub,2013-02-22 07:21:00,
2013-02-22 02:26:00,64.9,63.1,30.02,SE,130,0.0,1.0,94,0.00,,,0.00,meteohub,2013-02-22 07:26:00,
2013-02-22 02:31:00,64.8,63.0,30.02,SE,130,0.0,1.0,94,0.00,,,0.00,meteohub,2013-02-22 07:31:00,
2013-02-22 02:36:00,64.8,63.0,30.02,SE,130,0.0,1.0,94,0.00,,,0.00,meteohub,2013-02-22 07:36:00,
2013-02-22 02:41:00,64.8,63.0,30.02,SE,130,0.0,1.0,94,0.00,,,0.00,meteohub,2013-02-22 07:41:00,
2013-02-22 02:46:00,64.8,63.0,30.02,SE,130,0.0,1.0,94,0.00,,,0.00,meteohub,2013-02-22 07:46:00,
2013-02-22 02:51:00,64.8,63.0,30.02,SE,130,0.0,1.0,94,0.00,,,0.00,meteohub,2013-02-22 07:51:00,
2013-02-22 02:56:00,64.8,63.0,30.02,SE,130,0.0,1.0,94,0.00,,,0.00,meteohub,2013-02-22 07:56:00,
2013-02-22 03:01:00,64.8,63.0,30.02,SE,130,0.0,1.0,94,0.00,,,0.00,meteohub,2013-02-22 08:01:00,
2013-02-22 03:06:00,64.6,62.8,30.02,SE,130,0.0,1.0,94,0.00,,,0.00,meteohub,2013-02-22 08:06:00,
2013-02-22 03:11:00,64.6,62.8,30.02,SE,130,0.0,1.0,94,0.00,,,0.00,meteohub,2013-02-22 08:11:00,
2013-02-22 03:16:00,64.4,62.6,30.02,SE,130,0.0,1.0,94,0.00,,,0.00,meteohub,2013-02-22 08:16:00,
2013-02-22 03:21:00,64.2,62.4,30.02,SE,130,0.0,1.0,94,0.00,,,0.00,meteohub,2013-02-22 08:21:00,
2013-02-22 03:26:00,64.2,62.4,30.02,SE,130,0.0,1.0,94,0.00,,,0.00,meteohub,2013-02-22 08:26:00,
2013-02-22 03:31:00,64.2,62.4,30.02,SE,130,0.0,1.0,94,0.00,,,0.00,meteohub,2013-02-22 08:31:00,
2013-02-22 03:36:00,64.0,62.2,30.02,SE,130,0.0,1.0,94,0.00,,,0.00,meteohub,2013-02-22 08:36:00,
2013-02-22 03:41:00,64.0,62.2,30.02,SE,130,1.0,1.0,94,0.00,,,0.00,meteohub,2013-02-22 08:41:00,
2013-02-22 03:51:00,64.0,62.6,30.03,SE,130,0.0,1.0,95,0.00,,,0.00,meteohub,2013-02-22 08:51:00,
2013-02-22 03:56:00,64.0,62.6,30.02,SE,130,0.0,1.0,95,0.00,,,0.00,meteohub,2013-02-22 08:56:00,
2013-02-22 04:01:00,64.0,62.6,30.03,SE,130,0.0,1.0,95,0.00,,,0.00,meteohub,2013-02-22 09:01:00,
2013-02-22 04:06:00,64.0,62.6,30.03,SE,130,0.0,1.0,95,0.00,,,0.00,meteohub,2013-02-22 09:06:00,
2013-02-22 04:11:00,64.0,62.6,30.03,SE,130,1.0,1.0,95,0.00,,,0.00,meteohub,2013-02-22 09:11:00,
2013-02-22 04:16:00,64.0,62.6,30.03,SE,129,0.0,1.0,95,0.00,,,0.00,meteohub,2013-02-22 09:16:00,
2013-02-22 04:21:00,64.0,62.6,30.03,SE,129,1.0,1.0,95,0.00,,,0.00,meteohub,2013-02-22 09:21:00,
2013-02-22 04:26:00,64.0,62.6,30.03,SE,129,0.0,1.0,95,0.00,,,0.00,meteohub,2013-02-22 09:26:00,
2013-02-22 04:31:00,64.0,62.6,30.03,SE,129,1.0,1.0,95,0.00,,,0.00,meteohub,2013-02-22 09:31:00,
2013-02-22 04:41:00,64.0,62.6,30.03,SE,129,0.0,1.0,95,0.01,,,0.01,meteohub,2013-02-22 09:41:00,
2013-02-22 04:46:00,63.9,62.4,30.03,SE,129,1.0,1.0,95,0.01,,,0.01,meteohub,2013-02-22 09:46:00,
2013-02-22 04:51:00,63.9,62.4,30.03,East,86,1.0,2.0,95,0.01,,,0.01,meteohub,2013-02-22 09:51:00,
2013-02-22 04:56:00,63.9,62.4,30.03,ESE,113,1.0,2.0,95,0.01,,,0.01,meteohub,2013-02-22 09:56:00,
2013-02-22 05:01:00,64.0,62.6,30.03,ESE,108,1.0,2.0,95,0.01,,,0.01,meteohub,2013-02-22 10:01:00,
2013-02-22 05:06:00,64.0,62.6,30.03,East,97,0.0,2.0,95,0.01,,,0.01,meteohub,2013-02-22 10:06:00,
2013-02-22 05:11:00,64.0,62.6,30.03,East,86,1.0,3.0,95,0.01,,,0.01,meteohub,2013-02-22 10:11:00,
2013-02-22 05:21:00,64.2,62.8,30.03,East,92,1.0,5.0,95,0.01,,,0.01,meteohub,2013-02-22 10:21:00,
2013-02-22 05:26:00,64.2,63.1,30.04,ESE,104,0.0,5.0,96,0.01,,,0.01,meteohub,2013-02-22 10:26:00,
2013-02-22 05:31:00,64.2,62.8,30.04,ESE,104,0.0,5.0,95,0.01,,,0.01,meteohub,2013-02-22 10:31:00,
2013-02-22 05:36:00,64.0,62.6,30.04,East,101,0.0,3.0,95,0.00,,,0.01,meteohub,2013-02-22 10:36:00,
2013-02-22 05:46:00,64.0,62.6,30.04,East,101,0.0,2.0,95,0.00,,,0.01,meteohub,2013-02-22 10:46:00,
2013-02-22 05:51:00,64.0,62.6,30.04,East,101,0.0,2.0,95,0.00,,,0.01,meteohub,2013-02-22 10:51:00,
2013-02-22 05:56:00,63.9,62.4,30.04,East,101,0.0,1.0,95,0.00,,,0.01,meteohub,2013-02-22 10:56:00,
2013-02-22 06:01:00,63.9,62.4,30.04,East,101,0.0,2.0,95,0.00,,,0.01,meteohub,2013-02-22 11:01:00,
2013-02-22 06:11:00,63.9,62.4,30.04,East,88,0.0,2.0,95,0.00,,,0.01,meteohub,2013-02-22 11:11:00,
2013-02-22 06:16:00,63.9,62.4,30.04,East,94,1.0,2.0,95,0.00,,,0.01,meteohub,2013-02-22 11:16:00,
2013-02-22 06:21:00,63.9,62.4,30.04,East,93,0.0,2.0,95,0.00,,,0.01,meteohub,2013-02-22 11:21:00,
2013-02-22 06:26:00,63.9,62.4,30.04,East,93,0.0,2.0,95,0.00,,,0.01,meteohub,2013-02-22 11:26:00,
2013-02-22 06:31:00,64.0,62.6,30.04,East,86,1.0,2.0,95,0.00,,,0.01,meteohub,2013-02-22 11:31:00,
2013-02-22 06:41:00,64.0,62.6,30.04,ESE,121,1.0,3.0,95,0.00,,,0.01,meteohub,2013-02-22 11:41:00,
2013-02-22 06:46:00,64.2,62.8,30.04,ESE,102,0.0,3.0,95,0.00,,,0.01,meteohub,2013-02-22 11:46:00,
2013-02-22 06:51:00,64.4,63.0,30.05,ESE,120,2.0,5.0,95,0.00,,,0.01,meteohub,2013-02-22 11:51:00,
2013-02-22 07:01:00,64.8,63.3,30.05,East,87,2.0,5.0,95,0.00,,,0.01,meteohub,2013-02-22 12:01:00,
2013-02-22 07:06:00,64.8,63.3,30.05,ENE,70,1.0,6.0,95,0.00,,,0.01,meteohub,2013-02-22 12:06:00,
2013-02-22 07:11:00,64.9,63.5,30.05,ESE,115,1.0,6.0,95,0.00,,,0.01,meteohub,2013-02-22 12:11:00,
2013-02-22 07:16:00,64.9,63.5,30.05,ESE,121,2.0,6.0,95,0.00,,,0.01,meteohub,2013-02-22 12:16:00,
2013-02-22 07:21:00,64.9,63.5,30.06,East,101,1.0,6.0,95,0.00,,,0.01,meteohub,2013-02-22 12:21:00,
2013-02-22 07:26:00,65.1,63.7,30.06,ESE,109,3.0,5.0,95,0.00,,,0.01,meteohub,2013-02-22 12:26:00,
2013-02-22 07:31:00,65.3,63.9,30.06,East,99,2.0,5.0,95,0.00,,,0.01,meteohub,2013-02-22 12:31:00,
2013-02-22 07:36:00,65.5,64.0,30.06,East,89,2.0,6.0,95,0.00,,,0.01,meteohub,2013-02-22 12:36:00,
2013-02-22 07:41:00,65.7,64.2,30.06,East,88,1.0,7.0,95,0.00,,,0.01,meteohub,2013-02-22 12:41:00,
2013-02-22 07:46:00,65.8,64.4,30.06,ESE,102,2.0,7.0,95,0.00,,,0.01,meteohub,2013-02-22 12:46:00,
2013-02-22 07:51:00,66.0,64.6,30.06,ENE,61,3.0,7.0,95,0.00,,,0.01,meteohub,2013-02-22 12:51:00,
2013-02-22 07:56:00,66.4,64.9,30.06,East,101,3.0,7.0,95,0.00,,,0.01,meteohub,2013-02-22 12:56:00,
2013-02-22 08:01:00,66.7,65.3,30.06,East,97,2.0,8.0,95,0.00,,,0.01,meteohub,2013-02-22 13:01:00,
2013-02-22 08:06:00,66.9,65.5,30.06,East,88,3.0,8.0,95,0.00,,,0.01,meteohub,2013-02-22 13:06:00,
2013-02-22 08:11:00,67.5,65.7,30.06,ESE,106,5.0,8.0,94,0.00,,,0.01,meteohub,2013-02-22 13:11:00,
2013-02-22 08:16:00,67.8,66.0,30.06,East,92,3.0,8.0,94,0.00,,,0.01,meteohub,2013-02-22 13:16:00,
2013-02-22 08:26:00,68.5,66.4,30.07,SE,134,3.0,10.0,93,0.00,,,0.01,meteohub,2013-02-22 13:26:00,
2013-02-22 08:36:00,69.3,66.9,30.07,East,91,1.0,11.0,92,0.00,,,0.01,meteohub,2013-02-22 13:36:00,
2013-02-22 08:41:00,69.6,66.9,30.07,SE,126,5.0,11.0,91,0.00,,,0.01,meteohub,2013-02-22 13:41:00,
2013-02-22 08:46:00,70.2,67.5,30.07,ESE,111,2.0,8.0,91,0.00,,,0.01,meteohub,2013-02-22 13:46:00,
2013-02-22 08:51:00,70.7,67.6,30.07,SE,142,1.0,10.0,90,0.00,,,0.01,meteohub,2013-02-22 13:51:00,
2013-02-22 08:56:00,71.2,67.8,30.07,ESE,115,1.0,10.0,89,0.00,,,0.01,meteohub,2013-02-22 13:56:00,
2013-02-22 09:01:00,71.8,68.0,30.08,ESE,115,9.0,11.0,88,0.00,,,0.01,meteohub,2013-02-22 14:01:00,
2013-02-22 09:06:00,72.3,68.2,30.07,East,96,3.0,11.0,87,0.00,,,0.01,meteohub,2013-02-22 14:06:00,
2013-02-22 09:11:00,72.9,68.7,30.07,East,95,2.0,11.0,87,0.00,,,0.01,meteohub,2013-02-22 14:11:00,
2013-02-22 09:16:00,73.6,68.7,30.07,SE,133,4.0,10.0,85,0.00,,,0.01,meteohub,2013-02-22 14:16:00,
2013-02-22 09:21:00,73.9,68.7,30.07,ENE,74,3.0,10.0,84,0.00,,,0.01,meteohub,2013-02-22 14:21:00,
2013-02-22 09:26:00,74.1,68.9,30.07,South,173,4.0,11.0,84,0.00,,,0.01,meteohub,2013-02-22 14:26:00,
2013-02-22 09:36:00,75.4,68.7,30.08,ESE,111,5.0,11.0,80,0.00,,,0.01,meteohub,2013-02-22 14:36:00,
2013-02-22 09:41:00,75.6,68.5,30.08,SE,132,3.0,11.0,79,0.00,,,0.01,meteohub,2013-02-22 14:41:00,
2013-02-22 09:46:00,75.9,68.9,30.08,ESE,103,3.0,11.0,79,0.00,,,0.01,meteohub,2013-02-22 14:46:00,
2013-02-22 09:51:00,76.5,69.1,30.08,SE,142,5.0,11.0,78,0.00,,,0.01,meteohub,2013-02-22 14:51:00,
2013-02-22 09:56:00,76.8,69.4,30.08,ESE,114,2.0,11.0,78,0.00,,,0.01,meteohub,2013-02-22 14:56:00,
2013-02-22 10:06:00,76.8,68.7,30.08,South,171,5.0,15.0,76,0.00,,,0.01,meteohub,2013-02-22 15:06:00,
2013-02-22 10:11:00,77.2,69.1,30.08,SE,144,5.0,15.0,76,0.00,,,0.01,meteohub,2013-02-22 15:11:00,
2013-02-22 10:16:00,77.7,69.1,30.08,ESE,123,4.0,15.0,75,0.00,,,0.01,meteohub,2013-02-22 15:16:00,
2013-02-22 10:21:00,78.3,69.3,30.08,SE,131,5.0,11.0,74,0.00,,,0.01,meteohub,2013-02-22 15:21:00,
2013-02-22 10:26:00,78.4,69.1,30.08,SSE,157,6.0,10.0,73,0.00,,,0.01,meteohub,2013-02-22 15:26:00,
2013-02-22 10:31:00,79.2,69.3,30.08,ESE,121,8.0,10.0,72,0.00,,,0.01,meteohub,2013-02-22 15:31:00,
2013-02-22 10:36:00,79.3,69.1,30.07,East,92,9.0,15.0,71,0.00,,,0.01,meteohub,2013-02-22 15:36:00,
2013-02-22 10:41:00,79.5,68.9,30.08,East,94,5.0,15.0,70,0.00,,,0.01,meteohub,2013-02-22 15:41:00,
2013-02-22 10:46:00,79.5,68.9,30.07,SE,132,6.0,15.0,70,0.00,,,0.01,meteohub,2013-02-22 15:46:00,
2013-02-22 10:51:00,80.1,69.4,30.07,East,97,7.0,11.0,70,0.00,,,0.01,meteohub,2013-02-22 15:51:00,
2013-02-22 10:56:00,80.2,69.1,30.07,SSE,159,3.0,12.0,69,0.00,,,0.01,meteohub,2013-02-22 15:56:00,
2013-02-22 11:01:00,80.6,69.4,30.07,East,86,2.0,12.0,69,0.00,,,0.01,meteohub,2013-02-22 16:01:00,
2013-02-22 11:06:00,80.8,69.3,30.07,ESE,119,7.0,12.0,68,0.00,,,0.01,meteohub,2013-02-22 16:06:00,
2013-02-22 11:11:00,81.0,69.4,30.07,SE,133,5.0,10.0,68,0.00,,,0.01,meteohub,2013-02-22 16:11:00,
2013-02-22 11:16:00,80.4,68.9,30.07,SE,130,5.0,10.0,68,0.00,,,0.01,meteohub,2013-02-22 16:16:00,
2013-02-22 11:26:00,81.1,69.1,30.07,SSW,206,7.0,13.0,67,0.00,,,0.01,meteohub,2013-02-22 16:26:00,
2013-02-22 11:31:00,81.0,68.9,30.07,East,98,10.0,14.0,67,0.00,,,0.01,meteohub,2013-02-22 16:31:00,
2013-02-22 11:36:00,80.2,68.7,30.07,ESE,107,4.0,16.0,68,0.00,,,0.01,meteohub,2013-02-22 16:36:00,
2013-02-22 11:41:00,80.6,68.5,30.07,SE,142,17.0,17.0,67,0.00,,,0.01,meteohub,2013-02-22 16:41:00,
2013-02-22 11:46:00,80.6,69.1,30.07,ESE,107,9.0,17.0,68,0.00,,,0.01,meteohub,2013-02-22 16:46:00,
2013-02-22 11:51:00,81.0,68.9,30.07,SSW,198,5.0,19.0,67,0.00,,,0.01,meteohub,2013-02-22 16:51:00,
2013-02-22 11:56:00,80.4,68.9,30.07,South,188,8.0,19.0,68,0.00,,,0.01,meteohub,2013-02-22 16:56:00,
2013-02-22 12:01:00,80.8,69.3,30.06,ESE,122,1.0,19.0,68,0.00,,,0.01,meteohub,2013-02-22 17:01:00,
2013-02-22 12:06:00,81.3,68.4,30.06,SE,143,6.0,16.0,65,0.00,,,0.01,meteohub,2013-02-22 17:06:00,
2013-02-22 12:11:00,81.1,69.1,30.06,SE,134,9.0,18.0,67,0.00,,,0.01,meteohub,2013-02-22 17:11:00,
2013-02-22 12:16:00,82.0,70.0,30.06,ESE,111,4.0,18.0,67,0.00,,,0.01,meteohub,2013-02-22 17:16:00,
2013-02-22 12:21:00,82.4,68.5,30.06,ESE,121,9.0,18.0,63,0.00,,,0.01,meteohub,2013-02-22 17:21:00,
2013-02-22 12:26:00,82.8,69.3,30.06,South,176,2.0,16.0,64,0.00,,,0.01,meteohub,2013-02-22 17:26:00,
2013-02-22 12:31:00,82.9,69.4,30.06,SE,135,3.0,16.0,64,0.00,,,0.01,meteohub,2013-02-22 17:31:00,
2013-02-22 12:36:00,82.8,68.9,30.06,South,172,0.0,14.0,63,0.00,,,0.01,meteohub,2013-02-22 17:36:00,
2013-02-22 12:41:00,83.1,69.3,30.05,SSE,150,0.0,11.0,63,0.00,,,0.01,meteohub,2013-02-22 17:41:00,
2013-02-22 12:46:00,83.1,69.3,30.06,SSE,162,7.0,12.0,63,0.00,,,0.01,meteohub,2013-02-22 17:46:00,
2013-02-22 12:51:00,82.6,69.1,30.06,SE,146,3.0,14.0,64,0.00,,,0.01,meteohub,2013-02-22 17:51:00,
2013-02-22 12:56:00,82.6,68.7,30.05,ESE,121,7.0,14.0,63,0.00,,,0.01,meteohub,2013-02-22 17:56:00,
2013-02-22 13:06:00,82.6,68.7,30.05,SE,124,9.0,14.0,63,0.00,,,0.01,meteohub,2013-02-22 18:06:00,
2013-02-22 13:11:00,82.9,68.5,30.05,ESE,116,10.0,14.0,62,0.00,,,0.01,meteohub,2013-02-22 18:11:00,
2013-02-22 13:16:00,82.6,68.7,30.05,SE,140,4.0,14.0,63,0.00,,,0.01,meteohub,2013-02-22 18:16:00,
2013-02-22 13:21:00,83.1,68.4,30.05,ESE,123,4.0,14.0,61,0.00,,,0.01,meteohub,2013-02-22 18:21:00,
2013-02-22 13:26:00,83.7,69.3,30.05,SE,134,7.0,14.0,62,0.00,,,0.01,meteohub,2013-02-22 18:26:00,
2013-02-22 13:31:00,83.3,68.9,30.04,SE,128,6.0,12.0,62,0.00,,,0.01,meteohub,2013-02-22 18:31:00,
2013-02-22 13:36:00,83.1,68.7,30.04,SSE,151,6.0,14.0,62,0.00,,,0.01,meteohub,2013-02-22 18:36:00,
2013-02-22 13:41:00,82.9,69.4,30.04,SE,126,1.0,14.0,64,0.00,,,0.01,meteohub,2013-02-22 18:41:00,
2013-02-22 13:46:00,82.6,69.1,30.04,South,170,7.0,14.0,64,0.00,,,0.01,meteohub,2013-02-22 18:46:00,
2013-02-22 13:51:00,82.6,69.6,30.04,ESE,123,7.0,17.0,65,0.00,,,0.01,meteohub,2013-02-22 18:51:00,
2013-02-22 13:56:00,82.8,69.8,30.03,SSE,168,5.0,17.0,65,0.00,,,0.01,meteohub,2013-02-22 18:56:00,
2013-02-22 14:01:00,83.1,69.6,30.03,ESE,113,11.0,17.0,64,0.00,,,0.01,meteohub,2013-02-22 19:01:00,
2013-02-22 14:06:00,83.5,70.0,30.03,East,101,6.0,13.0,64,0.00,,,0.01,meteohub,2013-02-22 19:06:00,
2013-02-22 14:11:00,83.5,70.0,30.03,ESE,114,2.0,13.0,64,0.00,,,0.01,meteohub,2013-02-22 19:11:00,
2013-02-22 14:16:00,82.9,70.0,30.03,SE,146,7.0,15.0,65,0.00,,,0.01,meteohub,2013-02-22 19:16:00,
2013-02-22 14:21:00,83.1,69.6,30.03,ESE,119,3.0,15.0,64,0.00,,,0.01,meteohub,2013-02-22 19:21:00,
2013-02-22 14:26:00,83.8,70.0,30.03,SSE,163,4.0,15.0,63,0.00,,,0.01,meteohub,2013-02-22 19:26:00,
2013-02-22 14:31:00,83.8,68.9,30.03,ESE,108,1.0,12.0,61,0.00,,,0.01,meteohub,2013-02-22 19:31:00,
2013-02-22 14:36:00,83.1,69.3,30.02,South,169,5.0,12.0,63,0.00,,,0.01,meteohub,2013-02-22 19:36:00,
2013-02-22 14:41:00,82.9,69.1,30.02,ESE,106,8.0,17.0,63,0.00,,,0.01,meteohub,2013-02-22 19:41:00,
2013-02-22 14:46:00,82.8,69.3,30.02,East,101,6.0,17.0,64,0.00,,,0.01,meteohub,2013-02-22 19:46:00,
2013-02-22 14:51:00,82.8,69.3,30.02,SE,142,6.0,17.0,64,0.00,,,0.01,meteohub,2013-02-22 19:51:00,
2013-02-22 14:56:00,82.6,69.1,30.02,SE,145,7.0,15.0,64,0.00,,,0.01,meteohub,2013-02-22 19:56:00,
2013-02-22 15:01:00,82.8,69.3,30.02,ESE,115,7.0,15.0,64,0.00,,,0.01,meteohub,2013-02-22 20:01:00,
2013-02-22 15:06:00,83.1,69.3,30.02,SE,129,11.0,15.0,63,0.00,,,0.01,meteohub,2013-02-22 20:06:00,
2013-02-22 15:11:00,82.9,69.4,30.02,SSW,213,2.0,13.0,64,0.00,,,0.01,meteohub,2013-02-22 20:11:00,
2013-02-22 15:16:00,82.8,69.8,30.01,SSW,205,6.0,13.0,65,0.00,,,0.01,meteohub,2013-02-22 20:16:00,
2013-02-22 15:21:00,82.4,69.4,30.02,ESE,123,9.0,13.0,65,0.00,,,0.01,meteohub,2013-02-22 20:21:00,
2013-02-22 15:26:00,81.9,69.8,30.02,SSW,207,4.0,10.0,67,0.00,,,0.01,meteohub,2013-02-22 20:26:00,
2013-02-22 15:31:00,81.3,69.3,30.02,SE,141,3.0,11.0,67,0.00,,,0.01,meteohub,2013-02-22 20:31:00,
2013-02-22 15:36:00,81.1,69.6,30.02,East,82,8.0,12.0,68,0.00,,,0.01,meteohub,2013-02-22 20:36:00,
2013-02-22 15:41:00,81.0,69.4,30.01,SSE,153,4.0,15.0,68,0.00,,,0.01,meteohub,2013-02-22 20:41:00,
2013-02-22 15:46:00,80.4,69.3,30.01,East,97,7.0,15.0,69,0.00,,,0.01,meteohub,2013-02-22 20:46:00,
2013-02-22 15:51:00,80.2,69.6,30.01,SE,132,9.0,15.0,70,0.00,,,0.01,meteohub,2013-02-22 20:51:00,
2013-02-22 15:56:00,80.2,69.6,30.01,ESE,107,9.0,15.0,70,0.00,,,0.01,meteohub,2013-02-22 20:56:00,
2013-02-22 16:01:00,80.2,69.6,30.01,ESE,119,15.0,16.0,70,0.00,,,0.01,meteohub,2013-02-22 21:01:00,
2013-02-22 16:06:00,79.9,69.6,30.01,East,97,5.0,16.0,71,0.00,,,0.01,meteohub,2013-02-22 21:06:00,
2013-02-22 16:11:00,79.9,69.6,30.01,South,186,8.0,16.0,71,0.00,,,0.01,meteohub,2013-02-22 21:11:00,
2013-02-22 16:16:00,79.9,70.0,30.01,SSE,148,5.0,16.0,72,0.00,,,0.01,meteohub,2013-02-22 21:16:00,
2013-02-22 16:21:00,79.9,70.0,30.01,SSE,162,5.0,12.0,72,0.00,,,0.01,meteohub,2013-02-22 21:21:00,
2013-02-22 16:26:00,80.2,70.3,30.02,ENE,67,9.0,13.0,72,0.00,,,0.01,meteohub,2013-02-22 21:26:00,
2013-02-22 16:31:00,80.1,69.8,30.01,SE,144,7.0,13.0,71,0.00,,,0.01,meteohub,2013-02-22 21:31:00,
2013-02-22 16:36:00,79.7,69.8,30.01,SE,134,6.0,13.0,72,0.00,,,0.01,meteohub,2013-02-22 21:36:00,
2013-02-22 16:41:00,79.5,69.6,30.01,SSE,165,4.0,12.0,72,0.00,,,0.01,meteohub,2013-02-22 21:41:00,
2013-02-22 16:46:00,79.5,69.6,30.01,SE,134,7.0,11.0,72,0.00,,,0.01,meteohub,2013-02-22 21:46:00,
2013-02-22 16:51:00,79.3,69.4,30.01,ESE,123,3.0,11.0,72,0.00,,,0.01,meteohub,2013-02-22 21:51:00,
2013-02-22 16:56:00,79.0,69.3,30.01,SSE,153,8.0,12.0,72,0.00,,,0.01,meteohub,2013-02-22 21:56:00,
2013-02-22 17:01:00,78.4,69.1,30.01,ESE,113,14.0,15.0,73,0.00,,,0.01,meteohub,2013-02-22 22:01:00,
2013-02-22 17:06:00,78.1,69.1,30.01,ESE,102,2.0,15.0,74,0.00,,,0.01,meteohub,2013-02-22 22:06:00,
2013-02-22 17:11:00,77.9,69.3,30.01,ENE,63,4.0,15.0,75,0.00,,,0.01,meteohub,2013-02-22 22:11:00,
2013-02-22 17:16:00,77.5,68.9,30.01,SSE,161,6.0,14.0,75,0.00,,,0.01,meteohub,2013-02-22 22:16:00,
2013-02-22 17:21:00,77.4,69.3,30.01,SE,144,8.0,10.0,76,0.00,,,0.01,meteohub,2013-02-22 22:21:00,
2013-02-22 17:26:00,77.4,69.3,30.01,ESE,111,4.0,14.0,76,0.00,,,0.01,meteohub,2013-02-22 22:26:00,
2013-02-22 17:31:00,77.5,68.9,30.01,SE,130,5.0,14.0,75,0.00,,,0.01,meteohub,2013-02-22 22:31:00,
2013-02-22 17:36:00,77.5,68.9,30.01,SSE,162,4.0,14.0,75,0.00,,,0.01,meteohub,2013-02-22 22:36:00,
2013-02-22 17:41:00,77.4,68.9,30.01,East,81,2.0,12.0,75,0.00,,,0.01,meteohub,2013-02-22 22:41:00,
2013-02-22 17:46:00,77.2,68.7,30.01,SE,146,3.0,12.0,75,0.00,,,0.01,meteohub,2013-02-22 22:46:00,
2013-02-22 17:51:00,77.0,68.9,30.01,SSE,151,1.0,12.0,76,0.00,,,0.01,meteohub,2013-02-22 22:51:00,
2013-02-22 17:56:00,76.8,68.7,30.01,SE,130,4.0,10.0,76,0.00,,,0.01,meteohub,2013-02-22 22:56:00,
2013-02-22 18:01:00,76.5,68.7,30.01,SE,141,6.0,11.0,77,0.00,,,0.01,meteohub,2013-02-22 23:01:00,
2013-02-22 18:06:00,75.9,68.5,30.02,ESE,123,3.0,11.0,78,0.00,,,0.01,meteohub,2013-02-22 23:06:00,
2013-02-22 18:11:00,75.7,68.7,30.02,ESE,123,2.0,12.0,79,0.00,,,0.01,meteohub,2013-02-22 23:11:00,
2013-02-22 18:16:00,75.4,68.4,30.02,SSE,159,5.0,12.0,79,0.00,,,0.01,meteohub,2013-02-22 23:16:00,
2013-02-22 18:21:00,74.8,68.2,30.02,ESE,117,8.0,14.0,80,0.00,,,0.01,meteohub,2013-02-22 23:21:00,
2013-02-22 18:26:00,74.7,68.0,30.02,East,98,6.0,14.0,80,0.00,,,0.01,meteohub,2013-02-22 23:26:00,
2013-02-22 18:31:00,74.5,67.8,30.02,ESE,119,4.0,14.0,80,0.00,,,0.01,meteohub,2013-02-22 23:31:00,
2013-02-22 18:36:00,74.1,68.0,30.02,South,176,6.0,13.0,81,0.00,,,0.01,meteohub,2013-02-22 23:36:00,
2013-02-22 18:41:00,74.1,68.0,30.02,East,96,2.0,13.0,81,0.00,,,0.01,meteohub,2013-02-22 23:41:00,
2013-02-22 18:46:00,73.9,67.8,30.02,SSE,155,6.0,13.0,81,0.00,,,0.01,meteohub,2013-02-22 23:46:00,
2013-02-22 18:51:00,73.8,67.6,30.02,ESE,104,0.0,12.0,81,0.00,,,0.01,meteohub,2013-02-22 23:51:00,
2013-02-22 18:56:00,73.8,68.0,30.02,SE,126,3.0,12.0,82,0.00,,,0.01,meteohub,2013-02-22 23:56:00,
2013-02-22 19:01:00,73.6,67.8,30.03,SSE,157,3.0,8.0,82,0.00,,,0.01,meteohub,2013-02-23 00:01:00,
2013-02-22 19:06:00,73.4,67.6,30.02,ESE,123,3.0,6.0,82,0.00,,,0.01,meteohub,2013-02-23 00:06:00,
2013-02-22 19:11:00,73.2,67.8,30.02,SE,131,3.0,7.0,83,0.00,,,0.01,meteohub,2013-02-23 00:11:00,
2013-02-22 19:16:00,73.2,67.8,30.03,SE,132,4.0,9.0,83,0.00,,,0.01,meteohub,2013-02-23 00:16:00,
2013-02-22 19:21:00,73.2,67.8,30.03,SE,139,5.0,9.0,83,0.00,,,0.01,meteohub,2013-02-23 00:21:00,
2013-02-22 19:26:00,73.0,67.6,30.02,East,97,0.0,9.0,83,0.00,,,0.01,meteohub,2013-02-23 00:26:00,
2013-02-22 19:31:00,73.0,67.6,30.03,ESE,103,2.0,9.0,83,0.00,,,0.01,meteohub,2013-02-23 00:31:00,
2013-02-22 19:36:00,72.9,67.5,30.03,ESE,116,3.0,8.0,83,0.00,,,0.01,meteohub,2013-02-23 00:36:00,
2013-02-22 19:41:00,72.9,67.5,30.03,SE,131,1.0,7.0,83,0.00,,,0.01,meteohub,2013-02-23 00:41:00,
2013-02-22 19:51:00,72.5,67.5,30.03,SE,137,2.0,7.0,84,0.00,,,0.01,meteohub,2013-02-23 00:51:00,
2013-02-22 19:56:00,72.3,67.3,30.04,SE,130,0.0,7.0,84,0.00,,,0.01,meteohub,2013-02-23 00:56:00,
2013-02-22 20:01:00,72.3,67.3,30.04,SSE,150,1.0,5.0,84,0.00,,,0.01,meteohub,2013-02-23 01:01:00,
2013-02-22 20:06:00,72.3,67.3,30.04,SE,144,4.0,5.0,84,0.00,,,0.01,meteohub,2013-02-23 01:06:00,
2013-02-22 20:11:00,72.1,67.1,30.04,ESE,122,1.0,5.0,84,0.00,,,0.01,meteohub,2013-02-23 01:11:00,
2013-02-22 20:21:00,72.0,67.3,30.04,SE,144,2.0,7.0,85,0.00,,,0.01,meteohub,2013-02-23 01:21:00,
2013-02-22 20:26:00,72.0,67.3,30.04,SE,142,1.0,7.0,85,0.00,,,0.01,meteohub,2013-02-23 01:26:00,
2013-02-22 20:31:00,71.8,67.1,30.04,SE,129,5.0,7.0,85,0.00,,,0.01,meteohub,2013-02-23 01:31:00,
2013-02-22 20:36:00,71.8,67.3,30.04,SE,128,3.0,6.0,86,0.00,,,0.01,meteohub,2013-02-23 01:36:00,
2013-02-22 20:41:00,71.6,67.1,30.04,ESE,119,0.0,6.0,86,0.00,,,0.01,meteohub,2013-02-23 01:41:00,
2013-02-22 20:46:00,71.6,67.5,30.04,SE,136,2.0,6.0,87,0.00,,,0.01,meteohub,2013-02-23 01:46:00,
2013-02-22 20:51:00,71.4,67.1,30.04,SE,124,0.0,5.0,86,0.00,,,0.01,meteohub,2013-02-23 01:51:00,
2013-02-22 20:56:00,71.4,67.3,30.04,SSE,162,2.0,5.0,87,0.00,,,0.01,meteohub,2013-02-23 01:56:00,
2013-02-22 21:01:00,71.2,67.1,30.04,SE,132,0.0,5.0,87,0.00,,,0.01,meteohub,2013-02-23 02:01:00,
2013-02-22 21:06:00,71.2,67.1,30.04,SE,146,0.0,5.0,87,0.00,,,0.01,meteohub,2013-02-23 02:06:00,
2013-02-22 21:11:00,71.2,67.5,30.04,ESE,118,1.0,5.0,88,0.00,,,0.01,meteohub,2013-02-23 02:11:00,
2013-02-22 21:16:00,71.1,67.3,30.04,SE,143,0.0,4.0,88,0.00,,,0.01,meteohub,2013-02-23 02:16:00,
2013-02-22 21:21:00,71.1,67.3,30.04,SSE,156,2.0,7.0,88,0.00,,,0.01,meteohub,2013-02-23 02:21:00,
2013-02-22 21:26:00,71.1,67.3,30.04,SE,141,1.0,7.0,88,0.00,,,0.01,meteohub,2013-02-23 02:26:00,
2013-02-22 21:31:00,71.1,67.6,30.04,ESE,123,1.0,4.0,89,0.00,,,0.01,meteohub,2013-02-23 02:31:00,
2013-02-22 21:36:00,70.9,67.5,30.04,SE,136,0.0,4.0,89,0.00,,,0.01,meteohub,2013-02-23 02:36:00,
2013-02-22 21:41:00,70.9,67.5,30.04,SE,124,0.0,4.0,89,0.00,,,0.01,meteohub,2013-02-23 02:41:00,
2013-02-22 21:46:00,70.9,67.5,30.04,SE,144,0.0,4.0,89,0.00,,,0.01,meteohub,2013-02-23 02:46:00,
2013-02-22 21:56:00,70.7,67.3,30.04,SE,138,0.0,3.0,89,0.00,,,0.01,meteohub,2013-02-23 02:56:00,
2013-02-22 22:01:00,70.5,67.5,30.04,SE,138,1.0,3.0,90,0.00,,,0.01,meteohub,2013-02-23 03:01:00,
2013-02-22 22:06:00,70.5,67.5,30.04,ESE,111,2.0,3.0,90,0.00,,,0.01,meteohub,2013-02-23 03:06:00,
2013-02-22 22:11:00,70.5,67.5,30.05,ESE,117,1.0,5.0,90,0.00,,,0.01,meteohub,2013-02-23 03:11:00,
2013-02-22 22:16:00,70.5,67.5,30.04,SE,130,4.0,5.0,90,0.00,,,0.01,meteohub,2013-02-23 03:16:00,
2013-02-22 22:21:00,70.5,67.8,30.04,South,172,3.0,5.0,91,0.00,,,0.01,meteohub,2013-02-23 03:21:00,
2013-02-22 22:31:00,70.5,67.8,30.04,SSE,148,2.0,5.0,91,0.00,,,0.01,meteohub,2013-02-23 03:31:00,
2013-02-22 22:36:00,70.3,67.6,30.04,SE,132,2.0,5.0,91,0.00,,,0.01,meteohub,2013-02-23 03:36:00,
2013-02-22 22:41:00,70.2,67.5,30.04,ESE,119,0.0,4.0,91,0.00,,,0.01,meteohub,2013-02-23 03:41:00,
2013-02-22 22:46:00,70.2,67.5,30.04,East,101,5.0,5.0,91,0.00,,,0.01,meteohub,2013-02-23 03:46:00,
2013-02-22 22:51:00,70.2,67.6,30.03,ESE,116,1.0,6.0,92,0.00,,,0.01,meteohub,2013-02-23 03:51:00,
2013-02-22 22:56:00,70.2,67.6,30.03,ESE,117,3.0,7.0,92,0.00,,,0.01,meteohub,2013-02-23 03:56:00,
2013-02-22 23:01:00,70.2,67.6,30.03,ESE,104,2.0,7.0,92,0.00,,,0.01,meteohub,2013-02-23 04:01:00,
2013-02-22 23:06:00,70.2,67.6,30.03,ESE,123,1.0,7.0,92,0.00,,,0.01,meteohub,2013-02-23 04:06:00,
2013-02-22 23:11:00,70.0,67.5,30.03,SE,140,1.0,7.0,92,0.00,,,0.01,meteohub,2013-02-23 04:11:00,
2013-02-22 23:16:00,70.0,67.5,30.03,ESE,104,3.0,4.0,92,0.00,,,0.01,meteohub,2013-02-23 04:16:00,
2013-02-22 23:21:00,70.2,67.6,30.03,SE,141,4.0,7.0,92,0.00,,,0.01,meteohub,2013-02-23 04:21:00,
2013-02-22 23:26:00,70.2,67.6,30.03,SE,139,2.0,7.0,92,0.00,,,0.01,meteohub,2013-02-23 04:26:00,
2013-02-22 23:31:00,70.2,67.6,30.03,ESE,111,1.0,8.0,92,0.00,,,0.01,meteohub,2013-02-23 04:31:00,
2013-02-22 23:36:00,70.2,67.6,30.03,ESE,105,0.0,8.0,92,0.00,,,0.01,meteohub,2013-02-23 04:36:00,
2013-02-22 23:41:00,70.2,68.0,30.02,SSE,149,4.0,8.0,93,0.00,,,0.00,meteohub,2013-02-23 04:41:00,
2013-02-22 23:46:00,70.2,68.0,30.02,ESE,118,3.0,8.0,93,0.00,,,0.00,meteohub,2013-02-23 04:46:00,
2013-02-22 23:56:00,70.3,68.2,30.02,ESE,113,0.0,10.0,93,0.00,,,0.00,meteohub,2013-02-23 04:56:00,